GSAT0232 (GALILEO 32)

Last updated on Mon Jun 22 2026 00:02:55 GMT+0000 (Coordinated Universal Time)

1 61182U 24167A 26172.38887110 .00000029 00000+0 00000+0 0 9991 2 61182 55.1837 221.1983 0006220 228.6673 158.7060 1.70474305 10952
UTC large
Height (km)
Speed (km/s)
/
Latitude / Longitude
Inclination (degrees)
Orbital Period (minutes)
Azimuth
Elevation
Range (km)
Doppler Factor

Next 0 passes for location: London (51.5072 / 0.1276)

No passes found over London.
GSAT0232 (GALILEO 32)